[TLELIST] Archives

 

[list_settings.list_name] Current TLEs

October 4th 2008 PST

HST 1 20580U 90037B 08277.50226956 .00000307 00000-0 10933-4 0 2334 2 20580 028.4700 336.7425 0003762 096.2929 263.8093 15.00412194811269 ISS (ZARYA) 1 25544U 98067A 08277.80392192 .00012852 00000-0 98868-4 0 3757 2 25544 051.6420 179.4180 0006193 178.3414 288.4249 15.72413417565623 CXO 1 25867U 99040B 08276.00000000 +.00000191 +00000-0 +10000-3 0 02485 2 25867 064.2747 077.4861 7027060 277.7611 359.6647 00.37805077004030 ____________________________________________________________________ These 2-Line ...Continue Reading

[list_settings.list_name] Current TLEs

October 3rd 2008 PST

HST 1 20580U 90037B 08275.57325945 +.00000293 +00000-0 +98270-5 0 02411 2 20580 028.4702 349.3232 0003700 075.8086 284.2915 15.00411546810973 ISS (ZARYA) 1 25544U 98067A 08277.23754235 .00012532 00000-0 96586-4 0 3709 2 25544 051.6415 182.3193 0006204 174.9590 323.5578 15.72396358565534 CXO 1 25867U 99040B 08276.00000000 +.00000191 +00000-0 +10000-3 0 02485 2 25867 064.2747 077.4861 7027060 277.7611 359.6647 00.37805077004030 ____________________________________________________________________ These 2-Line ...Continue Reading

[list_settings.list_name] Current TLEs

October 2nd 2008 PST

HST 1 20580U 90037B 08276.23843564 .00000294 00000-0 98755-5 0 2326 2 20580 028.4702 344.9861 0003691 082.9373 277.1636 15.00411721811077 ISS (ZARYA) 1 25544U 98067A 08275.49699074 .00011494 00000-0 89156-4 0 3615 2 25544 051.6422 191.2341 0006331 168.4558 190.9518 15.72347356565252 CXO 1 25867U 99040B 08276.00000000 +.00000191 +00000-0 +10000-3 0 02485 2 25867 064.2747 077.4861 7027060 277.7611 359.6647 00.37805077004030 ____________________________________________________________________ These 2-Line ...Continue Reading

[list_settings.list_name] Current TLEs

October 1st 2008 PST

HST 1 20580U 90037B 08274.64201229 .00000294 00000-0 98733-5 0 2310 2 20580 028.4702 355.3964 0003635 065.7233 294.3735 15.00411302810838 ISS (ZARYA) 1 25544U 98067A 08274.37085845 .00011385 00000-0 88464-4 0 3559 2 25544 051.6418 197.0027 0006340 163.7598 296.9909 15.72319307565081 CXO 1 25867U 99040B 08270.66666667 +.00000228 +00000-0 +10000-3 0 02478 2 25867 064.2430 077.6110 7016652 277.8455 353.4918 00.37806103004012 ____________________________________________________________________ These 2-Line ...Continue Reading

[list_settings.list_name] Current TLEs

September 30th 2008 PST

HST 1 20580U 90037B 08273.57773003 .00000280 00000-0 87807-5 0 2309 2 20580 028.4691 002.3412 0003517 053.6707 306.4203 15.00410887810677 ISS (ZARYA) 1 25544U 98067A 08272.90420333 +.00010917 +00000-0 +85142-4 0 03450 2 25544 051.6414 204.5141 0006617 160.1678 273.3090 15.72282783564856 CXO 1 25867U 99040B 08270.66666667 +.00000228 +00000-0 +10000-3 0 02478 2 25867 064.2430 077.6110 7016652 277.8455 353.4918 00.37806103004012 ____________________________________________________________________ These 2-Line ...Continue Reading

[list_settings.list_name] Current TLEs

September 29th 2008 PST

HST 1 20580U 90037B 08271.71523428 .00000290 00000-0 95583-5 0 2296 2 20580 028.4689 014.4871 0003515 033.4608 326.6201 15.00410474810394 ISS (ZARYA) 1 25544U 98067A 08272.34455367 .00010807 00000-0 84382-4 0 3423 2 25544 051.6407 207.3813 0006508 156.9965 346.6163 15.72269220564762 CXO 1 25867U 99040B 08270.66666667 +.00000228 +00000-0 +10000-3 0 02478 2 25867 064.2430 077.6110 7016652 277.8455 353.4918 00.37806103004012 ____________________________________________________________________ These 2-Line ...Continue Reading

[list_settings.list_name] Current TLEs

September 28th 2008 PST

HST 1 20580U 90037B 08271.71523428 .00000290 00000-0 95583-5 0 2296 2 20580 028.4689 014.4871 0003515 033.4608 326.6201 15.00410474810394 ISS (ZARYA) 1 25544U 98067A 08271.88763355 .00010051 00000-0 78847-4 0 3385 2 25544 051.6408 209.7206 0006714 156.7779 278.8499 15.72255456564691 CXO 1 25867U 99040B 08270.66666667 +.00000228 +00000-0 +10000-3 0 02478 2 25867 064.2430 077.6110 7016652 277.8455 353.4918 00.37806103004012 ____________________________________________________________________ These 2-Line ...Continue Reading

[list_settings.list_name] Current TLEs

September 27th 2008 PST

HST 1 20580U 90037B 08270.65095037 .00000294 00000-0 98748-5 0 2287 2 20580 028.4689 021.4285 0003467 021.2034 338.8698 15.00410235810238 ISS (ZARYA) 1 25544U 98067A 08270.42983877 .00008879 00000-0 70303-4 0 3325 2 25544 051.6415 217.1880 0006717 149.9628 308.8878 15.72220234564466 CXO 1 25867U 99040B 08268.04166667 +.00000177 +00000-0 +10000-3 0 02464 2 25867 064.2383 077.7067 7009631 277.8757 356.0996 00.37800448004005 ____________________________________________________________________ These 2-Line ...Continue Reading

[list_settings.list_name] Current TLEs

September 26th 2008 PST

HST 1 20580U 90037B 08269.52014860 .00000296 00000-0 10048-4 0 2273 2 20580 028.4687 028.8043 0003458 008.3636 351.7008 15.00409943810067 ISS (ZARYA) 1 25544U 98067A 08269.47737389 .00008446 00000-0 67156-4 0 3268 2 25544 051.6417 222.0653 0006862 146.5675 317.7362 15.72200432564316 CXO 1 25867U 99040B 08268.04166667 +.00000177 +00000-0 +10000-3 0 02464 2 25867 064.2383 077.7067 7009631 277.8757 356.0996 00.37800448004005 ____________________________________________________________________ These 2-Line ...Continue Reading

[list_settings.list_name] Current TLEs

September 25th 2008 PST

HST 1 20580U 90037B 08267.79068674 +.00000308 +00000-0 +11010-4 0 02311 2 20580 028.4683 040.0850 0003462 349.3576 010.6938 15.00409567809806 ISS (ZARYA) 1 25544U 98067A 08268.77374888 .00007953 00000-0 63546-4 0 3206 2 25544 051.6411 225.6687 0006768 144.4701 294.7000 15.72185684564200 CXO 1 25867U 99040B 08268.04166667 +.00000177 +00000-0 +10000-3 0 02464 2 25867 064.2383 077.7067 7009631 277.8757 356.0996 00.37800448004005 ____________________________________________________________________ These 2-Line ...Continue Reading
  • This mailing list is a public mailing list - anyone may join or leave, at any time.
  • This mailing list is announce-only.

International Space Station (ISS) / Hubble Space Telescope (HST) / Chandra X-Ray Observatory Orbital Data via EMAIL

Privacy Policy:

Private list